266P/Christensen (2020)

Japanese version
Home page
Updated on November 4, 2020

---------------------------------------------------------------------

* Profile

* Pictures

* Orbital Elements

Epoch 2020 Apr. 21.0 TT = JDT 2458960.5
T 2020 Apr. 19.42679 TT                                 MPC
q   2.3352179            (2000.0)            P               Q
n   0.14826751     Peri.   97.85568     -0.22235851     -0.97495105
a   3.5354013      Node     5.00099     +0.86931102     -0.20067886
e   0.3394758      Incl.    3.42646     +0.44142387     -0.09590854
P   6.65
From 521 observations 2006 Oct. 27-2014 May 2, mean residual 0".8.
     Nongravitational parameters A1 = +0.46, A2 = -0.2725.

* Magnitudes Graph

        m1 = 8.5 + 5 log d + 20.0 log r(t - 40)

---------------------------------------------------------------------

The orbital elements are published on M.P.E.C. 2014-V27.
The magnitudes graphs are made with Comet for Windows.

---------------------------------------------------------------------

Copyright(C) Seiichi Yoshida (comet@aerith.net). All rights reserved.